Zurück zum Katalog

CZ-6A DEB

AktivPO
NORAD 61401·DEBRIS·🇨🇳 China

Gestartet Aug 6, 2024 von Taiyuan Satellite Launch Center

Loading…

Nächste Überflüge (nächste 24 Stunden)

TLE

AktuellSource: Space-Track

Epoche: Sep 14, 2026, 06:52 UTC

1 61401U 24140XS  26257.28645800  .00002459  00000-0  10161-2 0  9999
2 61401  88.9960 264.1973 0046079 256.9660 102.6387 14.25894356104511

Verfolge CZ-6A DEB in Echtzeit mit AllMySat

Download on the App Store